Regional Weather Roundup
Issued by NWS

Home | Current Version | Previous Version | Graphics & Text | Print | Product List | Glossary On
Versions: 1 2 3 4 5 6 7 8 9 10 11 12 13 14 15 16 17 18 19 20 21 22 23 24 25 26 27 28 29 30 31 32 33 34 35 36 37 38 39 40 41 42 43 44 45 46 47 48 49 50
000
ASUS43 KLMK 030602
RWRKY
KENTUCKY REGIONAL WEATHER ROUNDUP
NATIONAL WEATHER SERVICE LOUISVILLE KY
200 AM EDT WED JUN 03 2015

NOTE "FAIR" INDICATES FEW OR NO CLOUDS BELOW 12,000 FEET
WITH NO SIGNIFICANT WEATHER AND/OR OBSTRUCTIONS TO VISIBILITY.

KYZ001>023-026-027-061>063-070>075-030700-
WESTERN AND SOUTH CENTRAL KENTUCKY

CITY           SKY/WX    TMP DP  RH WIND       PRES   REMARKS
PADUCAH        CLOUDY    63  58  83 E6        30.04F
HENDERSON      CLOUDY    57  55  94 CALM      30.06S
OWENSBORO      CLOUDY    61  56  83 E5        30.07F
HOPKINSVILLE   CLOUDY    61  58  91 N3        30.04F
BOWLING GREEN  CLOUDY    61  54  77 E9        30.06F
GLASGOW        NOT AVBL
$$

KYZ024-025-028>034-038-045-046-053-030700-
NORTH CENTRAL KENTUCKY

CITY           SKY/WX    TMP DP  RH WIND       PRES   REMARKS
LOUISVILLE/SDF CLOUDY    62  53  72 E6        30.07F
LOUISVILLE/LOU CLOUDY    62  52  69 CALM      30.08F
FORT KNOX      CLOUDY    59  53  80 E6        30.06S
$$

KYZ035>037-039>044-047>052-055>060-089>105-030700-
NORTHEAST KENTUCKY

CITY           SKY/WX    TMP DP  RH WIND       PRES   REMARKS
LEXINGTON      CLOUDY    58  55  90 NE3       30.08F
COVINGTON      CLEAR     57  52  83 NE5       30.08F
FRANKFORT      CLOUDY    59  53  80 E5        30.07F
$$

KYZ054-064>069-076>088-106>120-030700-
SOUTHEAST KENTUCKY

CITY           SKY/WX    TMP DP  RH WIND       PRES   REMARKS
JACKSON        CLOUDY    57  54  89 CALM      30.08S FOG
LONDON         CLOUDY    60  54  80 N10       30.06F
SOMERSET       NOT AVBL
MIDDLESBORO    NOT AVBL
MONTICELLO     CLOUDY    60  59  97 NE6       30.08F
$$



USA.gov is the U.S. government's official web portal to all federal, state and local government web resources and services.